Location: Joplin, MO
(37.0842°N, 94.5133°W)
Time: 21:50:27
(UTC+02:00)

Transit 2A Rocket - Pass Details

Date: 30 March 2023
Orbit: 584 x 914 km, 66.7° (Epoch: 06 June)

Event Time Altitude Azimuth Distance (km) Brightness Sun altitude
Rises 18:23:13 0° 216° (SW) 3,202 8.3 47.0°
Reaches altitude 10° 18:25:32 10° 220° (SW) 2,330 7.7 47.3°
Maximum altitude 18:30:52 62° 300° (WNW) 937 5.8 48.1°
Drops below altitude 10° 18:36:43 10° 21° (NNE) 2,538 7.6 48.9°
Sets 18:39:20 0° 25° (NNE) 3,511 8.3 49.2°
